Year,Month,Day,Hour,Minute,Value (Times are PST for temperature in C)
2018,09,18,00,00,9.40
2018,09,18,00,01,9.40
2018,09,18,00,02,9.30
2018,09,18,00,03,9.30
2018,09,18,00,04,9.30
2018,09,18,00,05,9.30
2018,09,18,00,06,9.30
2018,09,18,00,07,9.20
2018,09,18,00,08,9.20
2018,09,18,00,09,9.20
2018,09,18,00,10,9.20
2018,09,18,00,11,9.20
2018,09,18,00,12,9.30
2018,09,18,00,13,9.30
2018,09,18,00,14,9.30
2018,09,18,00,15,9.30
2018,09,18,00,16,9.30
2018,09,18,00,17,9.30
2018,09,18,00,18,9.20
2018,09,18,00,19,9.20
2018,09,18,00,20,9.20
2018,09,18,00,21,9.20
2018,09,18,00,22,9.20
2018,09,18,00,23,9.20
2018,09,18,00,24,9.20
2018,09,18,00,25,9.20
2018,09,18,00,26,9.20
2018,09,18,00,27,9.20
2018,09,18,00,28,9.20
2018,09,18,00,29,9.20
2018,09,18,00,30,9.20
2018,09,18,00,31,9.20
2018,09,18,00,32,9.20
2018,09,18,00,33,9.20
2018,09,18,00,34,9.20
2018,09,18,00,35,9.20
2018,09,18,00,36,9.20
2018,09,18,00,37,9.20
2018,09,18,00,38,9.20
2018,09,18,00,39,9.20
2018,09,18,00,40,9.20
2018,09,18,00,41,9.10
2018,09,18,00,42,9.10
2018,09,18,00,43,9.10
2018,09,18,00,44,9.10
2018,09,18,00,45,9.10
2018,09,18,00,46,9.00
2018,09,18,00,47,9.00
2018,09,18,00,48,9.00
2018,09,18,00,49,9.00
2018,09,18,00,50,8.90
2018,09,18,00,51,8.90
2018,09,18,00,52,8.90
2018,09,18,00,53,8.90
2018,09,18,00,54,8.90
2018,09,18,00,55,8.90
2018,09,18,00,56,8.80
2018,09,18,00,57,8.80
2018,09,18,00,58,8.90
2018,09,18,00,59,8.90
2018,09,18,01,00,8.90
2018,09,18,01,01,8.90
2018,09,18,01,02,9.00
2018,09,18,01,03,9.00
2018,09,18,01,04,9.00
2018,09,18,01,05,9.00
2018,09,18,01,06,9.00
2018,09,18,01,07,9.00
2018,09,18,01,08,9.00
2018,09,18,01,09,9.00
2018,09,18,01,10,9.00
2018,09,18,01,11,9.00
2018,09,18,01,12,9.00
2018,09,18,01,13,8.90
2018,09,18,01,14,8.90
2018,09,18,01,15,8.90
2018,09,18,01,16,8.90
2018,09,18,01,17,8.90
2018,09,18,01,18,8.90
2018,09,18,01,19,8.90
2018,09,18,01,20,8.90
2018,09,18,01,21,8.90
2018,09,18,01,22,8.90
2018,09,18,01,23,8.80
2018,09,18,01,24,8.80
2018,09,18,01,25,8.90
2018,09,18,01,26,8.90
2018,09,18,01,27,9.00
2018,09,18,01,28,9.00
2018,09,18,01,29,9.10
2018,09,18,01,30,9.20
2018,09,18,01,31,9.20
2018,09,18,01,32,9.20
2018,09,18,01,33,9.30
2018,09,18,01,34,9.30
2018,09,18,01,35,9.30
2018,09,18,01,36,9.40
2018,09,18,01,37,9.30
2018,09,18,01,38,9.30
2018,09,18,01,39,9.30
2018,09,18,01,40,9.30
2018,09,18,01,41,9.30
2018,09,18,01,42,9.30
2018,09,18,01,43,9.30
2018,09,18,01,44,9.40
2018,09,18,01,45,9.40
2018,09,18,01,46,9.30
2018,09,18,01,47,9.40
2018,09,18,01,48,9.30
2018,09,18,01,49,9.30
2018,09,18,01,50,9.30
2018,09,18,01,51,9.20
2018,09,18,01,52,9.20
2018,09,18,01,53,9.20
2018,09,18,01,54,9.20
2018,09,18,01,55,9.10
2018,09,18,01,56,9.00
2018,09,18,01,57,9.00
2018,09,18,01,58,9.00
2018,09,18,01,59,9.00
2018,09,18,02,00,9.00
2018,09,18,02,01,9.00
2018,09,18,02,02,9.10
2018,09,18,02,03,9.10
2018,09,18,02,04,9.20
2018,09,18,02,05,9.20
2018,09,18,02,06,9.20
2018,09,18,02,07,9.20
2018,09,18,02,08,9.20
2018,09,18,02,09,9.20
2018,09,18,02,10,9.20
2018,09,18,02,11,9.20
2018,09,18,02,12,9.10
2018,09,18,02,13,9.10
2018,09,18,02,14,9.10
2018,09,18,02,15,9.00
2018,09,18,02,16,9.00
2018,09,18,02,17,8.90
2018,09,18,02,18,8.90
2018,09,18,02,19,8.80
2018,09,18,02,20,8.80
2018,09,18,02,21,8.70
2018,09,18,02,22,8.70
2018,09,18,02,23,8.70
2018,09,18,02,24,8.60
2018,09,18,02,25,8.50
2018,09,18,02,26,8.50
2018,09,18,02,27,8.50
2018,09,18,02,28,8.40
2018,09,18,02,29,8.40
2018,09,18,02,30,8.40
2018,09,18,02,31,8.40
2018,09,18,02,32,8.30
2018,09,18,02,33,8.30
2018,09,18,02,34,8.30
2018,09,18,02,35,8.30
2018,09,18,02,36,8.30
2018,09,18,02,37,8.30
2018,09,18,02,38,8.20
2018,09,18,02,39,8.20
2018,09,18,02,40,8.20
2018,09,18,02,41,8.30
2018,09,18,02,42,8.40
2018,09,18,02,43,8.40
2018,09,18,02,44,8.50
2018,09,18,02,45,8.50
2018,09,18,02,46,8.60
2018,09,18,02,47,8.60
2018,09,18,02,48,8.60
2018,09,18,02,49,8.70
2018,09,18,02,50,8.70
2018,09,18,02,51,8.60
2018,09,18,02,52,8.60
2018,09,18,02,53,8.60
2018,09,18,02,54,8.70
2018,09,18,02,55,8.70
2018,09,18,02,56,8.70
2018,09,18,02,57,8.70
2018,09,18,02,58,8.70
2018,09,18,02,59,8.70
2018,09,18,03,00,8.70
2018,09,18,03,01,8.70
2018,09,18,03,02,8.70
2018,09,18,03,03,8.70
2018,09,18,03,04,8.70
2018,09,18,03,05,8.60
2018,09,18,03,06,8.50
2018,09,18,03,07,8.50
2018,09,18,03,08,8.40
2018,09,18,03,09,8.30
2018,09,18,03,10,8.20
2018,09,18,03,11,8.20
2018,09,18,03,12,8.10
2018,09,18,03,13,8.10
2018,09,18,03,14,8.00
2018,09,18,03,15,8.00
2018,09,18,03,16,8.00
2018,09,18,03,17,8.00
2018,09,18,03,18,8.00
2018,09,18,03,19,8.00
2018,09,18,03,20,8.00
2018,09,18,03,21,8.00
2018,09,18,03,22,8.00
2018,09,18,03,23,8.00
2018,09,18,03,24,8.10
2018,09,18,03,25,8.10
2018,09,18,03,26,8.10
2018,09,18,03,27,8.10
2018,09,18,03,28,8.00
2018,09,18,03,29,8.00
2018,09,18,03,30,8.00
2018,09,18,03,31,7.90
2018,09,18,03,32,7.90
2018,09,18,03,33,7.90
2018,09,18,03,34,7.90
2018,09,18,03,35,7.90
2018,09,18,03,36,7.90
2018,09,18,03,37,8.00
2018,09,18,03,38,8.00
2018,09,18,03,39,8.00
2018,09,18,03,40,7.90
2018,09,18,03,41,7.90
2018,09,18,03,42,7.90
2018,09,18,03,43,7.90
2018,09,18,03,44,7.90
2018,09,18,03,45,8.00
2018,09,18,03,46,8.00
2018,09,18,03,47,8.00
2018,09,18,03,48,8.00
2018,09,18,03,49,8.00
2018,09,18,03,50,8.00
2018,09,18,03,51,8.00
2018,09,18,03,52,8.00
2018,09,18,03,53,8.00
2018,09,18,03,54,8.00
2018,09,18,03,55,8.00
2018,09,18,03,56,8.10
2018,09,18,03,57,8.10
2018,09,18,03,58,8.10
2018,09,18,03,59,8.20
2018,09,18,04,00,8.20
2018,09,18,04,01,8.20
2018,09,18,04,02,8.30
2018,09,18,04,03,8.30
2018,09,18,04,04,8.30
2018,09,18,04,05,8.40
2018,09,18,04,06,8.40
2018,09,18,04,07,8.40
2018,09,18,04,08,8.50
2018,09,18,04,09,8.50
2018,09,18,04,10,8.40
2018,09,18,04,11,8.40
2018,09,18,04,12,8.40
2018,09,18,04,13,8.30
2018,09,18,04,14,8.30
2018,09,18,04,15,8.20
2018,09,18,04,16,8.20
2018,09,18,04,17,8.20
2018,09,18,04,18,8.20
2018,09,18,04,19,8.20
2018,09,18,04,20,8.20
2018,09,18,04,21,8.20
2018,09,18,04,22,8.20
2018,09,18,04,23,8.10
2018,09,18,04,24,8.10
2018,09,18,04,25,8.10
2018,09,18,04,26,8.10
2018,09,18,04,27,8.00
2018,09,18,04,28,8.00
2018,09,18,04,29,8.00
2018,09,18,04,30,8.00
2018,09,18,04,31,8.00
2018,09,18,04,32,8.00
2018,09,18,04,33,7.90
2018,09,18,04,34,7.90
2018,09,18,04,35,7.90
2018,09,18,04,36,7.90
2018,09,18,04,37,7.90
2018,09,18,04,38,7.80
2018,09,18,04,39,7.80
2018,09,18,04,40,7.80
2018,09,18,04,41,7.70
2018,09,18,04,42,7.70
2018,09,18,04,43,7.60
2018,09,18,04,44,7.60
2018,09,18,04,45,7.60
2018,09,18,04,46,7.60
2018,09,18,04,47,7.60
2018,09,18,04,48,7.60
2018,09,18,04,49,7.70
2018,09,18,04,50,7.70
2018,09,18,04,51,7.70
2018,09,18,04,52,7.80
2018,09,18,04,53,7.80
2018,09,18,04,54,7.80
2018,09,18,04,55,7.80
2018,09,18,04,56,7.80
2018,09,18,04,57,7.80
2018,09,18,04,58,7.80
2018,09,18,04,59,7.80
2018,09,18,05,00,7.80
2018,09,18,05,01,7.80
2018,09,18,05,02,7.80
2018,09,18,05,03,7.80
2018,09,18,05,04,7.80
2018,09,18,05,05,7.80
2018,09,18,05,06,7.80
2018,09,18,05,07,7.80
2018,09,18,05,08,7.80
2018,09,18,05,09,7.80
2018,09,18,05,10,7.80
2018,09,18,05,11,7.80
2018,09,18,05,12,7.80
2018,09,18,05,13,7.80
2018,09,18,05,14,7.80
2018,09,18,05,15,7.80
2018,09,18,05,16,7.80
2018,09,18,05,17,7.80
2018,09,18,05,18,7.80
2018,09,18,05,19,7.80
2018,09,18,05,20,7.80
2018,09,18,05,21,7.80
2018,09,18,05,22,7.80
2018,09,18,05,23,7.80
2018,09,18,05,24,7.80
2018,09,18,05,25,7.80
2018,09,18,05,26,7.80
2018,09,18,05,27,7.80
2018,09,18,05,28,7.90
2018,09,18,05,29,7.90
2018,09,18,05,30,7.90
2018,09,18,05,31,7.90
2018,09,18,05,32,7.80
2018,09,18,05,33,7.80
2018,09,18,05,34,7.80
2018,09,18,05,35,7.80
2018,09,18,05,36,7.90
2018,09,18,05,37,7.90
2018,09,18,05,38,8.00
2018,09,18,05,39,8.00
2018,09,18,05,40,8.10
2018,09,18,05,41,8.20
2018,09,18,05,42,8.30
2018,09,18,05,43,8.40
2018,09,18,05,44,8.40
2018,09,18,05,45,8.40
2018,09,18,05,46,8.40
2018,09,18,05,47,8.40
2018,09,18,05,48,8.40
2018,09,18,05,49,8.30
2018,09,18,05,50,8.30
2018,09,18,05,51,8.20
2018,09,18,05,52,8.20
2018,09,18,05,53,8.20
2018,09,18,05,54,8.20
2018,09,18,05,55,8.10
2018,09,18,05,56,8.10
2018,09,18,05,57,8.10
2018,09,18,05,58,8.20
2018,09,18,05,59,8.20
2018,09,18,06,00,8.20
2018,09,18,06,01,8.20
2018,09,18,06,02,8.20
2018,09,18,06,03,8.20
2018,09,18,06,04,8.20
2018,09,18,06,05,8.20
2018,09,18,06,06,8.20
2018,09,18,06,07,8.30
2018,09,18,06,08,8.30
2018,09,18,06,09,8.30
2018,09,18,06,10,8.30
2018,09,18,06,11,8.30
2018,09,18,06,12,8.30
2018,09,18,06,13,8.30
2018,09,18,06,14,8.30
2018,09,18,06,15,8.30
2018,09,18,06,16,8.30
2018,09,18,06,17,8.30
2018,09,18,06,18,8.30
2018,09,18,06,19,8.30
2018,09,18,06,20,8.20
2018,09,18,06,21,8.20
2018,09,18,06,22,8.20
2018,09,18,06,23,8.20
2018,09,18,06,24,8.20
2018,09,18,06,25,8.20
2018,09,18,06,26,8.30
2018,09,18,06,27,8.30
2018,09,18,06,28,8.30
2018,09,18,06,29,8.30
2018,09,18,06,30,8.30
2018,09,18,06,31,8.30
2018,09,18,06,32,8.30
2018,09,18,06,33,8.30
2018,09,18,06,34,8.40
2018,09,18,06,35,8.40
2018,09,18,06,36,8.40
2018,09,18,06,37,8.40
2018,09,18,06,38,8.30
2018,09,18,06,39,8.30
2018,09,18,06,40,8.30
2018,09,18,06,41,8.30
2018,09,18,06,42,8.30
2018,09,18,06,43,8.20
2018,09,18,06,44,8.20
2018,09,18,06,45,8.20
2018,09,18,06,46,8.20
2018,09,18,06,47,8.20
2018,09,18,06,48,8.20
2018,09,18,06,49,8.20
2018,09,18,06,50,8.20
2018,09,18,06,51,8.10
2018,09,18,06,52,8.20
2018,09,18,06,53,8.20
2018,09,18,06,54,8.20
2018,09,18,06,55,8.20
2018,09,18,06,56,8.20
2018,09,18,06,57,8.20
2018,09,18,06,58,8.20
2018,09,18,06,59,8.20
2018,09,18,07,00,8.20
2018,09,18,07,01,8.20
2018,09,18,07,02,8.20
2018,09,18,07,03,8.20
2018,09,18,07,04,8.20
2018,09,18,07,05,8.20
2018,09,18,07,06,8.20
2018,09,18,07,07,8.20
2018,09,18,07,08,8.20
2018,09,18,07,09,8.30
2018,09,18,07,10,8.30
2018,09,18,07,11,8.30
2018,09,18,07,12,8.40
2018,09,18,07,13,8.40
2018,09,18,07,14,8.50
2018,09,18,07,15,8.50
2018,09,18,07,16,8.50
2018,09,18,07,17,8.50
2018,09,18,07,18,8.50
2018,09,18,07,19,8.50
2018,09,18,07,20,8.40
2018,09,18,07,21,8.40
2018,09,18,07,22,8.40
2018,09,18,07,23,8.40
2018,09,18,07,24,8.40
2018,09,18,07,25,8.50
2018,09,18,07,26,8.50
2018,09,18,07,27,8.60
2018,09,18,07,28,8.60
2018,09,18,07,29,8.60
2018,09,18,07,30,8.70
2018,09,18,07,31,8.70
2018,09,18,07,32,8.70
2018,09,18,07,33,8.70
2018,09,18,07,34,8.70
2018,09,18,07,35,8.80
2018,09,18,07,36,8.80
2018,09,18,07,37,8.90
2018,09,18,07,38,8.90
2018,09,18,07,39,9.00
2018,09,18,07,40,9.00
2018,09,18,07,41,9.10
2018,09,18,07,42,9.10
2018,09,18,07,43,9.10
2018,09,18,07,44,9.10
2018,09,18,07,45,9.00
2018,09,18,07,46,9.00
2018,09,18,07,47,9.00
2018,09,18,07,48,9.00
2018,09,18,07,49,9.00
2018,09,18,07,50,9.00
2018,09,18,07,51,9.10
2018,09,18,07,52,9.10
2018,09,18,07,53,9.20
2018,09,18,07,54,9.30
2018,09,18,07,55,9.30
2018,09,18,07,56,9.40
2018,09,18,07,57,9.40
2018,09,18,07,58,9.40
2018,09,18,07,59,9.50
2018,09,18,08,00,9.50
2018,09,18,08,01,9.50
2018,09,18,08,02,9.60
2018,09,18,08,03,9.60
2018,09,18,08,04,9.60
2018,09,18,08,05,9.60
2018,09,18,08,06,9.60
2018,09,18,08,07,9.60
2018,09,18,08,08,9.70
2018,09,18,08,09,9.70
2018,09,18,08,10,9.70
2018,09,18,08,11,9.70
2018,09,18,08,12,9.70
2018,09,18,08,13,9.70
2018,09,18,08,14,9.70
2018,09,18,08,15,9.80
2018,09,18,08,16,9.80
2018,09,18,08,17,9.80
2018,09,18,08,18,9.90
2018,09,18,08,19,9.90
2018,09,18,08,20,9.90
2018,09,18,08,21,9.90
2018,09,18,08,22,9.90
2018,09,18,08,23,10.00
2018,09,18,08,24,10.10
2018,09,18,08,25,10.10
2018,09,18,08,26,10.20
2018,09,18,08,27,10.20
2018,09,18,08,28,10.20
2018,09,18,08,29,10.30
2018,09,18,08,30,10.40
2018,09,18,08,31,10.40
2018,09,18,08,32,10.40
2018,09,18,08,33,10.50
2018,09,18,08,34,10.60
2018,09,18,08,35,10.60
2018,09,18,08,36,10.60
2018,09,18,08,37,10.60
2018,09,18,08,38,10.70
2018,09,18,08,39,10.70
2018,09,18,08,40,10.80
2018,09,18,08,41,10.80
2018,09,18,08,42,10.90
2018,09,18,08,43,10.90
2018,09,18,08,44,10.90
2018,09,18,08,45,10.90
2018,09,18,08,46,10.90
2018,09,18,08,47,10.90
2018,09,18,08,48,10.90
2018,09,18,08,49,11.00
2018,09,18,08,50,11.10
2018,09,18,08,51,11.10
2018,09,18,08,52,11.10
2018,09,18,08,53,11.20
2018,09,18,08,54,11.30
2018,09,18,08,55,11.40
2018,09,18,08,56,11.40
2018,09,18,08,57,11.40
2018,09,18,08,58,11.40
2018,09,18,08,59,11.50
2018,09,18,09,00,11.60
2018,09,18,09,01,11.60
2018,09,18,09,02,11.60
2018,09,18,09,03,11.60
2018,09,18,09,04,11.60
2018,09,18,09,05,11.60
2018,09,18,09,06,11.60
2018,09,18,09,07,11.60
2018,09,18,09,08,11.70
2018,09,18,09,09,11.70
2018,09,18,09,10,11.60
2018,09,18,09,11,11.60
2018,09,18,09,12,11.60
2018,09,18,09,13,11.60
2018,09,18,09,14,11.60
2018,09,18,09,15,11.60
2018,09,18,09,16,11.60
2018,09,18,09,17,11.60
2018,09,18,09,18,11.60
2018,09,18,09,19,11.60
2018,09,18,09,20,11.60
2018,09,18,09,21,11.60
2018,09,18,09,22,11.60
2018,09,18,09,23,11.60
2018,09,18,09,24,11.60
2018,09,18,09,25,11.60
2018,09,18,09,26,11.70
2018,09,18,09,27,11.70
2018,09,18,09,28,11.70
2018,09,18,09,29,11.80
2018,09,18,09,30,11.80
2018,09,18,09,31,11.80
2018,09,18,09,32,11.80
2018,09,18,09,33,11.80
2018,09,18,09,34,11.90
2018,09,18,09,35,11.90
2018,09,18,09,36,11.90
2018,09,18,09,37,11.90
2018,09,18,09,38,12.00
2018,09,18,09,39,12.00
2018,09,18,09,40,12.10
2018,09,18,09,41,12.10
2018,09,18,09,42,12.20
2018,09,18,09,43,12.20
2018,09,18,09,44,12.20
2018,09,18,09,45,12.30
2018,09,18,09,46,12.30
2018,09,18,09,47,12.30
2018,09,18,09,48,12.30
2018,09,18,09,49,12.30
2018,09,18,09,50,12.30
2018,09,18,09,51,12.30
2018,09,18,09,52,12.30
2018,09,18,09,53,12.30
2018,09,18,09,54,12.30
2018,09,18,09,55,12.30
2018,09,18,09,56,12.30
2018,09,18,09,57,12.30
2018,09,18,09,58,12.30
2018,09,18,09,59,12.30
2018,09,18,10,00,12.40
2018,09,18,10,01,12.40
2018,09,18,10,02,12.50
2018,09,18,10,03,12.50
2018,09,18,10,04,12.60
2018,09,18,10,05,12.70
2018,09,18,10,06,12.70
2018,09,18,10,07,12.70
2018,09,18,10,08,12.70
2018,09,18,10,09,12.80
2018,09,18,10,10,12.80
2018,09,18,10,11,12.80
2018,09,18,10,12,12.70
2018,09,18,10,13,12.70
2018,09,18,10,14,12.70
2018,09,18,10,15,12.70
2018,09,18,10,16,12.70
2018,09,18,10,17,12.80
2018,09,18,10,18,12.80
2018,09,18,10,19,12.80
2018,09,18,10,20,12.80
2018,09,18,10,21,12.80
2018,09,18,10,22,12.80
2018,09,18,10,23,12.80
2018,09,18,10,24,12.80
2018,09,18,10,25,12.80
2018,09,18,10,26,12.80
2018,09,18,10,27,12.80
2018,09,18,10,28,12.80
2018,09,18,10,29,12.80
2018,09,18,10,30,12.90
2018,09,18,10,31,13.00
2018,09,18,10,32,13.00
2018,09,18,10,33,13.10
2018,09,18,10,34,13.10
2018,09,18,10,35,13.10
2018,09,18,10,36,13.20
2018,09,18,10,37,13.10
2018,09,18,10,38,13.10
2018,09,18,10,39,13.00
2018,09,18,10,40,13.00
2018,09,18,10,41,13.00
2018,09,18,10,42,13.00
2018,09,18,10,43,13.10
2018,09,18,10,44,13.10
2018,09,18,10,45,13.20
2018,09,18,10,46,13.20
2018,09,18,10,47,13.20
2018,09,18,10,48,13.10
2018,09,18,10,49,13.10
2018,09,18,10,50,13.20
2018,09,18,10,51,13.20
2018,09,18,10,52,13.20
2018,09,18,10,53,13.20
2018,09,18,10,54,13.30
2018,09,18,10,55,13.30
2018,09,18,10,56,13.30
2018,09,18,10,57,13.30
2018,09,18,10,58,13.40
2018,09,18,10,59,13.50
2018,09,18,11,00,13.60
2018,09,18,11,01,13.60
2018,09,18,11,02,13.70
2018,09,18,11,03,13.70
2018,09,18,11,04,13.70
2018,09,18,11,05,13.60
2018,09,18,11,06,13.60
2018,09,18,11,07,13.60
2018,09,18,11,08,13.60
2018,09,18,11,09,13.60
2018,09,18,11,10,13.60
2018,09,18,11,11,13.50
2018,09,18,11,12,13.40
2018,09,18,11,13,13.30
2018,09,18,11,14,13.20
2018,09,18,11,15,13.20
2018,09,18,11,16,13.30
2018,09,18,11,17,13.30
2018,09,18,11,18,13.30
2018,09,18,11,19,13.40
2018,09,18,11,20,13.50
2018,09,18,11,21,13.50
2018,09,18,11,22,13.60
2018,09,18,11,23,13.60
2018,09,18,11,24,13.70
2018,09,18,11,25,13.70
2018,09,18,11,26,13.70
2018,09,18,11,27,13.80
2018,09,18,11,28,13.90
2018,09,18,11,29,13.90
2018,09,18,11,30,13.80
2018,09,18,11,31,13.80
2018,09,18,11,32,13.80
2018,09,18,11,33,13.70
2018,09,18,11,34,13.70
2018,09,18,11,35,13.60
2018,09,18,11,36,13.60
2018,09,18,11,37,13.70
2018,09,18,11,38,13.70
2018,09,18,11,39,13.70
2018,09,18,11,40,13.80
2018,09,18,11,41,13.80
2018,09,18,11,42,13.80
2018,09,18,11,43,13.90
2018,09,18,11,44,14.00
2018,09,18,11,45,14.00
2018,09,18,11,46,14.00
2018,09,18,11,47,14.00
2018,09,18,11,48,14.00
2018,09,18,11,49,14.00
2018,09,18,11,50,14.00
2018,09,18,11,51,14.00
2018,09,18,11,52,13.90
2018,09,18,11,53,14.00
2018,09,18,11,54,14.00
2018,09,18,11,55,14.00
2018,09,18,11,56,14.10
2018,09,18,11,57,14.20
2018,09,18,11,58,14.20
2018,09,18,11,59,14.20
2018,09,18,12,00,14.20
2018,09,18,12,01,14.10
2018,09,18,12,02,14.00
2018,09,18,12,03,13.90
2018,09,18,12,04,13.80
2018,09,18,12,05,13.70
2018,09,18,12,06,13.70
2018,09,18,12,07,13.70
2018,09,18,12,08,13.80
2018,09,18,12,09,13.90
2018,09,18,12,10,14.00
2018,09,18,12,11,14.00
2018,09,18,12,12,14.10
2018,09,18,12,13,14.10
2018,09,18,12,14,14.20
2018,09,18,12,15,14.20
2018,09,18,12,16,14.20
2018,09,18,12,17,14.10
2018,09,18,12,18,14.00
2018,09,18,12,19,13.90
2018,09,18,12,20,14.00
2018,09,18,12,21,14.00
2018,09,18,12,22,14.00
2018,09,18,12,23,14.10
2018,09,18,12,24,14.20
2018,09,18,12,25,14.10
2018,09,18,12,26,14.00
2018,09,18,12,27,14.00
2018,09,18,12,28,14.00
2018,09,18,12,29,13.90
2018,09,18,12,30,13.90
2018,09,18,12,31,13.90
2018,09,18,12,32,13.90
2018,09,18,12,33,14.00
2018,09,18,12,34,14.00
2018,09,18,12,35,14.10
2018,09,18,12,36,14.10
2018,09,18,12,37,14.20
2018,09,18,12,38,14.30
2018,09,18,12,39,14.40
2018,09,18,12,40,14.50
2018,09,18,12,41,14.60
2018,09,18,12,42,14.70
2018,09,18,12,43,14.70
2018,09,18,12,44,14.70
2018,09,18,12,45,14.70
2018,09,18,12,46,14.70
2018,09,18,12,47,14.70
2018,09,18,12,48,14.70
2018,09,18,12,49,14.80
2018,09,18,12,50,14.70
2018,09,18,12,51,14.70
2018,09,18,12,52,14.60
2018,09,18,12,53,14.50
2018,09,18,12,54,14.50
2018,09,18,12,55,14.50
2018,09,18,12,56,14.50
2018,09,18,12,57,14.50
2018,09,18,12,58,14.60
2018,09,18,12,59,14.70
2018,09,18,13,00,14.80
2018,09,18,13,01,14.90
2018,09,18,13,02,15.00
2018,09,18,13,03,15.10
2018,09,18,13,04,15.20
2018,09,18,13,05,15.30
2018,09,18,13,06,15.30
2018,09,18,13,07,15.20
2018,09,18,13,08,15.20
2018,09,18,13,09,15.20
2018,09,18,13,10,15.20
2018,09,18,13,11,15.20
2018,09,18,13,12,15.20
2018,09,18,13,13,15.10
2018,09,18,13,14,15.00
2018,09,18,13,15,15.00
2018,09,18,13,16,14.90
2018,09,18,13,17,14.90
2018,09,18,13,18,14.90
2018,09,18,13,19,14.90
2018,09,18,13,20,14.90
2018,09,18,13,21,14.80
2018,09,18,13,22,14.80
2018,09,18,13,23,14.80
2018,09,18,13,24,14.80
2018,09,18,13,25,14.70
2018,09,18,13,26,14.70
2018,09,18,13,27,14.70
2018,09,18,13,28,14.70
2018,09,18,13,29,14.80
2018,09,18,13,30,14.80
2018,09,18,13,31,14.80
2018,09,18,13,32,14.80
2018,09,18,13,33,14.80
2018,09,18,13,34,14.80
2018,09,18,13,35,14.80
2018,09,18,13,36,14.80
2018,09,18,13,37,14.80
2018,09,18,13,38,14.90
2018,09,18,13,39,15.00
2018,09,18,13,40,15.00
2018,09,18,13,41,15.10
2018,09,18,13,42,15.20
2018,09,18,13,43,15.30
2018,09,18,13,44,15.30
2018,09,18,13,45,15.30
2018,09,18,13,46,15.40
2018,09,18,13,47,15.50
2018,09,18,13,48,15.50
2018,09,18,13,49,15.60
2018,09,18,13,50,15.70
2018,09,18,13,51,15.80
2018,09,18,13,52,15.80
2018,09,18,13,53,15.80
2018,09,18,13,54,15.80
2018,09,18,13,55,15.80
2018,09,18,13,56,15.70
2018,09,18,13,57,15.60
2018,09,18,13,58,15.50
2018,09,18,13,59,15.50
2018,09,18,14,00,15.50
2018,09,18,14,01,15.50
2018,09,18,14,02,15.40
2018,09,18,14,03,15.30
2018,09,18,14,04,15.40
2018,09,18,14,05,15.50
2018,09,18,14,06,15.60
2018,09,18,14,07,15.80
2018,09,18,14,08,15.80
2018,09,18,14,09,15.80
2018,09,18,14,10,15.80
2018,09,18,14,11,15.70
2018,09,18,14,12,15.70
2018,09,18,14,13,15.60
2018,09,18,14,14,15.50
2018,09,18,14,15,15.40
2018,09,18,14,16,15.50
2018,09,18,14,17,15.60
2018,09,18,14,18,15.70
2018,09,18,14,19,15.70
2018,09,18,14,20,15.80
2018,09,18,14,21,15.80
2018,09,18,14,22,15.90
2018,09,18,14,23,15.90
2018,09,18,14,24,15.90
2018,09,18,14,25,16.10
2018,09,18,14,26,16.10
2018,09,18,14,27,16.10
2018,09,18,14,28,16.10
2018,09,18,14,29,16.10
2018,09,18,14,30,16.10
2018,09,18,14,31,16.20
2018,09,18,14,32,16.20
2018,09,18,14,33,16.30
2018,09,18,14,34,16.30
2018,09,18,14,35,16.20
2018,09,18,14,36,16.10
2018,09,18,14,37,16.00
2018,09,18,14,38,15.90
2018,09,18,14,39,15.80
2018,09,18,14,40,15.70
2018,09,18,14,41,15.70
2018,09,18,14,42,15.70
2018,09,18,14,43,15.80
2018,09,18,14,44,15.80
2018,09,18,14,45,15.80
2018,09,18,14,46,15.80
2018,09,18,14,47,15.80
2018,09,18,14,48,15.80
2018,09,18,14,49,15.80
2018,09,18,14,50,15.70
2018,09,18,14,51,15.60
2018,09,18,14,52,15.60
2018,09,18,14,53,15.60
2018,09,18,14,54,15.60
2018,09,18,14,55,15.70
2018,09,18,14,56,15.80
2018,09,18,14,57,15.70
2018,09,18,14,58,15.70
2018,09,18,14,59,15.80
2018,09,18,15,00,15.90
2018,09,18,15,01,16.00
2018,09,18,15,02,16.10
2018,09,18,15,03,16.10
2018,09,18,15,04,16.10
2018,09,18,15,05,16.00
2018,09,18,15,06,15.90
2018,09,18,15,07,15.90
2018,09,18,15,08,15.80
2018,09,18,15,09,15.80
2018,09,18,15,10,15.80
2018,09,18,15,11,15.80
2018,09,18,15,12,16.00
2018,09,18,15,13,16.10
2018,09,18,15,14,16.10
2018,09,18,15,15,16.20
2018,09,18,15,16,16.20
2018,09,18,15,17,16.20
2018,09,18,15,18,16.20
2018,09,18,15,19,16.20
2018,09,18,15,20,16.30
2018,09,18,15,21,16.30
2018,09,18,15,22,16.30
2018,09,18,15,23,16.30
2018,09,18,15,24,16.20
2018,09,18,15,25,16.20
2018,09,18,15,26,16.20
2018,09,18,15,27,16.10
2018,09,18,15,28,16.10
2018,09,18,15,29,16.10
2018,09,18,15,30,16.00
2018,09,18,15,31,15.80
2018,09,18,15,32,15.80
2018,09,18,15,33,15.80
2018,09,18,15,34,15.80
2018,09,18,15,35,15.90
2018,09,18,15,36,16.00
2018,09,18,15,37,16.10
2018,09,18,15,38,16.10
2018,09,18,15,39,16.10
2018,09,18,15,40,16.10
2018,09,18,15,41,16.20
2018,09,18,15,42,16.30
2018,09,18,15,43,16.30
2018,09,18,15,44,16.30
2018,09,18,15,45,16.40
2018,09,18,15,46,16.40
2018,09,18,15,47,16.40
2018,09,18,15,48,16.40
2018,09,18,15,49,16.40
2018,09,18,15,50,16.40
2018,09,18,15,51,16.40
2018,09,18,15,52,16.40
2018,09,18,15,53,16.40
2018,09,18,15,54,16.50
2018,09,18,15,55,16.60
2018,09,18,15,56,16.70
2018,09,18,15,57,16.70
2018,09,18,15,58,16.70
2018,09,18,15,59,16.80
2018,09,18,16,00,16.80
2018,09,18,16,01,16.80
2018,09,18,16,02,16.80
2018,09,18,16,03,16.80
2018,09,18,16,04,16.90
2018,09,18,16,05,17.00
2018,09,18,16,06,17.00
2018,09,18,16,07,17.20
2018,09,18,16,08,17.30
2018,09,18,16,09,17.30
2018,09,18,16,10,17.30
2018,09,18,16,11,17.40
2018,09,18,16,12,17.40
2018,09,18,16,13,17.40
2018,09,18,16,14,17.40
2018,09,18,16,15,17.40
2018,09,18,16,16,17.40
2018,09,18,16,17,17.30
2018,09,18,16,18,17.30
2018,09,18,16,19,17.40
2018,09,18,16,20,17.40
2018,09,18,16,21,17.40
2018,09,18,16,22,17.50
2018,09,18,16,23,17.50
2018,09,18,16,24,17.50
2018,09,18,16,25,17.40
2018,09,18,16,26,17.40
2018,09,18,16,27,17.30
2018,09,18,16,28,17.30
2018,09,18,16,29,17.30
2018,09,18,16,30,17.30
2018,09,18,16,31,17.30
2018,09,18,16,32,17.30
2018,09,18,16,33,17.30
2018,09,18,16,34,17.30
2018,09,18,16,35,17.30
2018,09,18,16,36,17.30
2018,09,18,16,37,17.30
2018,09,18,16,38,17.30
2018,09,18,16,39,17.30
2018,09,18,16,40,17.40
2018,09,18,16,41,17.40
2018,09,18,16,42,17.30
2018,09,18,16,43,17.30
2018,09,18,16,44,17.30
2018,09,18,16,45,17.30
2018,09,18,16,46,17.30
2018,09,18,16,47,17.40
2018,09,18,16,48,17.40
2018,09,18,16,49,17.40
2018,09,18,16,50,17.40
2018,09,18,16,51,17.40
2018,09,18,16,52,17.30
2018,09,18,16,53,17.30
2018,09,18,16,54,17.40
2018,09,18,16,55,17.40
2018,09,18,16,56,17.40
2018,09,18,16,57,17.40
2018,09,18,16,58,17.40
2018,09,18,16,59,17.40
2018,09,18,17,00,17.40
2018,09,18,17,01,17.40
2018,09,18,17,02,17.40
2018,09,18,17,03,17.40
2018,09,18,17,04,17.50
2018,09,18,17,05,17.60
2018,09,18,17,06,17.70
2018,09,18,17,07,17.80
2018,09,18,17,08,17.90
2018,09,18,17,09,18.00
2018,09,18,17,10,18.10
2018,09,18,17,11,18.20
2018,09,18,17,12,18.20
2018,09,18,17,13,18.10
2018,09,18,17,14,18.10
2018,09,18,17,15,18.10
2018,09,18,17,16,18.10
2018,09,18,17,17,18.00
2018,09,18,17,18,17.90
2018,09,18,17,19,17.70
2018,09,18,17,20,17.60
2018,09,18,17,21,17.50
2018,09,18,17,22,17.50
2018,09,18,17,23,17.40
2018,09,18,17,24,17.40
2018,09,18,17,25,17.30
2018,09,18,17,26,17.20
2018,09,18,17,27,17.10
2018,09,18,17,28,17.00
2018,09,18,17,29,16.90
2018,09,18,17,30,16.80
2018,09,18,17,31,16.70
2018,09,18,17,32,16.50
2018,09,18,17,33,16.40
2018,09,18,17,34,16.30
2018,09,18,17,35,16.10
2018,09,18,17,36,16.10
2018,09,18,17,37,16.00
2018,09,18,17,38,15.90
2018,09,18,17,39,15.80
2018,09,18,17,40,15.80
2018,09,18,17,41,15.80